Regional Weather Roundup
Issued by NWS Boston, MA

Home | Current Version | Previous Version | Text Only | Print | Product List | Glossary On
Versions: 1 2 3 4 5 6 7 8 9 10 11 12 13 14 15 16 17 18 19 20 21 22 23 24 25 26 27 28 29 30 31 32 33 34 35 36 37 38 39 40 41 42 43 44 45 46 47
000
ASUS41 KBOX 221110
RWRBOX

REGIONAL WEATHER ROUNDUP
NATIONAL WEATHER SERVICE TAUNTON MA
700 AM EDT FRI AUG 22 2014

NOTE:  "FAIR" INDICATES FEW OR NO CLOUDS BELOW 12,000 FEET WITH NO
SIGNIFICANT WEATHER AND/OR OBSTRUCTIONS TO VISIBILITY.  THE FOLLOWING
OBSERVATION LOCATIONS DO NOT REPORT PRESENT WEATHER...PROVINCETOWN...
SMITHFIELD...BLOCK ISLAND...KEENE...AND OXFORD.

MAZALL-221200-
EASTERN MASSACHUSETTS

CITY           SKY/WX    TMP DP  RH WIND       PRES   REMARKS
BOSTON         CLOUDY    63  60  90 NW8       30.09S
BEVERLY        LGT RAIN  61  59  93 N7        30.09R
LAWRENCE       CLOUDY    60  58  92 NE10      30.12S
BEDFORD        LGT RAIN  60  59  96 N3        30.09S
BLUE HILL        N/A     60  60 100 N10       30.08S
NORWOOD        CLOUDY    63  60  90 N5        30.08S
MARSHFIELD     CLOUDY    68  64  88 NE5       30.10R
PLYMOUTH       LGT RAIN  65  61  87 E3        30.08S
TAUNTON        LGT RAIN  65  63  93 CALM      30.07R
NEW BEDFORD    LGT RAIN  64  63  96 NE5       30.06S
$$

MAZALL-221200-
CAPE COD AND THE ISLANDS

CITY           SKY/WX    TMP DP  RH WIND       PRES   REMARKS
FALMOUTH       CLOUDY    64  63  94 N5        30.07S
HYANNIS        PTSUNNY   66  63  90 N3        30.06S
CHATHAM        PTSUNNY   67  63  87 NE5       30.08R
PROVINCETOWN   PTSUNNY   64  63  94 MISG      30.08S
NANTUCKET      PTSUNNY   63  61  93 NE6       30.06R
MARTHAS VNYRD  CLOUDY    64  63  96 NE5       30.06R
$$

MAZALL-221200-
CENTRAL AND WESTERN MASSACHUSETTS

CITY           SKY/WX    TMP DP  RH WIND       PRES   REMARKS
WORCESTER      CLOUDY    58  57  97 NE6       30.11R VSB 1/2
FITCHBURG      CLOUDY    61  58  90 N3        30.12S
ORANGE         CLOUDY    61  59  93 CALM      30.10S
SPRINGFIELD    CLOUDY    63  61  93 NE5       30.07S
WESTFIELD      CLOUDY    64  62  93 N6        30.07S
NORTH ADAMS    CLOUDY    61  58  90 E8        30.06F
PITTSFIELD     CLOUDY    62  61  96 E5        30.06S
$$

RIZALL-221200-
RHODE ISLAND

CITY           SKY/WX    TMP DP  RH WIND       PRES   REMARKS
PROVIDENCE     CLOUDY    65  62  90 NE6       30.08S
NEWPORT        CLOUDY    66  63  90 NE8       30.06R
BLOCK ISLAND   CLOUDY    66  61  82 NE10      30.06R
SMITHFIELD     CLOUDY    63  57  82 N7        30.08R
WESTERLY       CLOUDY    64  62  93 N5        30.06S
$$

CTZALL-221200-
CONNECTICUT

CITY           SKY/WX    TMP DP  RH WIND       PRES   REMARKS
BRADLEY INTL   MOCLDY    66  62  87 NE7       30.06S
HARTFORD       CLOUDY    66  61  84 E3        30.06R
BRIDGEPORT     PTCLDY    68  61  78 E10       30.03S
DANBURY        CLOUDY    65  62  90 E6        30.06R
GROTON         CLOUDY    64  61  90 NE7       30.05R
NEW HAVEN      PTCLDY    65  59  81 NE6       30.05R
CHESTER        MOCLDY    63  61  94 CALM      30.07R
MERIDEN        CLOUDY    64  61  90 N3        30.06R
WILLIMANTIC    CLOUDY    64  58  80 N5        30.08R
OXFORD         MOCLDY    63  55  77 E6        30.08R
$$

MEZ002-015-021-024-NHZ003-005-008-011-012-014-VTZ005-008-221200-
NORTHERN NEW ENGLAND

CITY           SKY/WX    TMP DP  RH WIND       PRES   REMARKS
PORTLAND ME    CLOUDY    63  60  90 N5        30.14R
BANGOR ME      CLOUDY    63  58  83 N3        30.16R
CONCORD NH     CLOUDY    57  56  96 N3        30.13R
MANCHESTER NH  CLOUDY    59  57  93 N6        30.10R
NASHUA NH      CLOUDY    59  59 100 CALM      30.12R
PORTSMOUTH NH  CLOUDY    62  60  95 N8        30.11R FOG
JAFFREY NH     CLOUDY    57  56  96 CALM      30.13R
KEENE NH       CLOUDY    59  52  77 NE5       30.12R
BURLINGTON VT  CLOUDY    62  58  86 SE6       30.07S
MT. WASHINGTON FOG       45  45 100 SE17        N/A  VSB 0
$$

NYZ052-076-221200-
EASTERN NEW YORK

CITY           SKY/WX    TMP DP  RH WIND       PRES   REMARKS
ALBANY         CLOUDY    66  63  90 SE7       30.03R
NEW YORK CITY  MOCLDY    68  64  87 E7        30.01R
$$

ANZALL-221200-
MARINE OBSERVATIONS

STATION/POSITION TIME  TEMP    WIND        PRES    VSBY  WAVE
                       AIR SEA DIR/SP/G                  HT/PER
                 (UTC) (F)     (DEG/KT/KT) (MB)    (MI)  (FT/S)
BOSTON BUOY      1050   66 66   90/  6/  6 1019.0R         2/ 6
BUZZARDS BAY     1100           50/ 14/ 15 1018.5R
NANTUCKET SOUND  1050   67 70   40/  8/  8 1018.0R         1
MASS BAY-STELLWA 1004   67 66   40/  4/  6   N/A    1 7/8  2/ 6
ISLE OF SHOALS   1100   63      20/ 12/ 14 1018.9R
S OF BLOCK IS    1008      68                N/A           3/ 7
$$

......................KEY.........................
  SKY/WX - SKY CONDITION/PRESENT WEATHER
  TMP    - TEMPERATURE IN FAHRENHEIT
  DWPT   - DEWPOINT IN FAHRENHEIT
  RH     - RELATIVE HUMIDITY IN PERCENT
  WIND   - DIRECTION AND SPEED IN MPH
  PRES   - MEAN SEA LEVEL PRESSURE IN INCHES OF HG
  WCI    - WIND CHILL INDEX
  VSB    - VISIBILITY IN MILES
  HX     - HEAT INDEX
  TC     - TEMPERATURE IN CELSIUS
  VRB    - VARIABLE WIND DIRECTION
  N/A    - NOT AVAILABLE



USA.gov is the U.S. government's official web portal to all federal, state and local government web resources and services.